Lapse_Rate
5.7 5.3 6.5 6.6 6.5 6.5 6.5 6.5 6.5 6.5 6.5 7.4 7.7 7.0 6.6 7.2 6.6 6.5 7.3 6.6 7.1 7.4 7.4 7.0 6.3 6.4 6.3 6.6 6.5 6.4 6.3 6.3 6.3 6.9 6.4 6.2 6.5 6.6 6.5 6.8 6.5 6.2 6.2 6.0 6.0 5.8 6.1 6.6 6.2
6.5 5.9 6.0 7.4 6.5 6.5 6.5 6.5 6.5 6.5 7.1 7.7 7.7 7.5 7.0 6.5 7.9 7.2 7.8 6.9 7.2 7.1 7.7 7.3 6.2 6.3 6.4 6.7 6.6 6.4 6.5 6.4 6.5 6.7 6.8 6.6 6.7 6.9 7.0 6.6 6.3 6.4 6.5 6.1 6.1 6.1 6.2 6.2 5.9
6.8 6.9 7.1 6.5 6.5 6.5 6.5 6.5 6.5 7.0 7.6 7.4 7.2 7.9 7.5 7.1 8.2 8.3 7.0 7.0 7.0 7.1 7.2 6.7 6.4 6.5 6.3 6.4 6.4 6.4 6.4 6.5 6.9 6.7 6.9 6.7 7.1 6.8 6.8 6.6 6.6 6.4 6.3 6.6 7.3 6.4 6.2 6.2 6.1
6.8 6.9 7.2 6.5 6.5 6.5 6.5 6.5 6.7 6.8 7.4 7.7 7.7 6.6 8.0 8.8 8.4 7.1 6.7 7.2 7.3 7.6 7.3 6.6 6.4 6.6 6.3 6.4 6.4 6.3 6.5 6.6 6.6 6.8 6.7 7.0 7.1 6.9 6.6 6.2 6.6 6.5 6.4 6.5 7.3 6.8 6.3 6.3 6.1
6.0 7.4 6.5 6.5 6.5 6.5 6.5 6.9 7.0 6.5 6.9 7.2 7.5 6.7 7.4 8.1 7.6 6.4 6.8 7.3 7.9 8.1 7.6 7.3 6.4 6.4 6.2 6.3 6.4 6.4 6.3 6.5 6.7 6.6 6.7 6.7 6.7 6.7 6.7 6.5 6.6 6.8 7.3 7.5 6.7 6.5 6.5 6.4 6.1
7.1 7.2 6.5 6.5 6.5 6.5 6.6 7.3 7.1 6.9 7.2 7.4 7.2 7.2 7.2 7.6 6.7 6.7 7.2 7.3 9.2 8.9 7.5 7.6 6.4 6.3 6.3 6.0 6.4 6.5 6.6 6.5 6.6 6.6 6.5 6.6 6.6 6.5 6.3 6.4 6.7 6.5 6.5 6.6 6.3 6.7 6.6 6.5 6.3
6.7 6.5 6.5 6.5 6.5 6.5 6.5 7.3 6.9 6.9 7.0 7.0 7.9 6.5 7.2 8.1 7.2 6.9 6.9 7.5 8.5 7.9 7.4 7.2 7.3 6.9 6.2 5.8 6.0 6.3 6.8 6.5 6.2 6.4 6.5 6.6 6.6 6.6 6.4 6.3 6.2 6.0 6.1 6.1 6.3 6.5 6.4 6.4 5.9
7.1 6.5 6.5 6.5 6.5 6.5 6.7 7.2 7.5 7.2 6.8 8.3 8.3 6.7 6.8 8.3 7.4 7.3 7.4 7.3 7.5 7.9 7.6 7.1 6.8 7.2 6.8 6.9 6.0 6.1 6.2 6.3 6.4 6.5 6.5 6.6 6.8 6.8 6.7 6.3 6.1 6.0 6.1 6.0 6.1 5.9 6.0 6.1 6.1
5.9 6.5 6.5 6.5 6.5 6.5 7.2 6.6 7.6 8.1 7.5 7.8 8.0 8.0 8.5 8.8 8.6 8.6 7.8 7.6 6.9 7.6 7.7 6.6 6.5 6.1 6.0 6.5 6.6 6.1 6.2 6.4 6.7 6.7 6.4 5.9 5.8 7.4 7.8 7.0 6.3 6.2 5.8 5.8 5.7 5.5 5.5 5.6 5.9
6.7 6.5 6.5 6.5 6.6 6.5 6.8 6.9 7.2 7.1 7.1 7.2 7.8 8.3 8.3 8.2 8.5 8.1 7.7 7.1 7.0 8.8 7.0 6.9 6.4 6.5 6.5 7.4 6.7 6.5 6.8 6.7 6.5 6.3 5.3 6.7 6.8 6.8 7.9 7.3 6.7 6.3 5.7 5.7 5.5 5.3 5.2 6.1 7.7
6.8 6.5 6.5 6.7 7.2 7.3 7.0 6.9 7.4 7.0 6.5 7.3 7.4 7.8 8.2 8.4 8.5 8.2 8.4 7.2 5.7 7.4 7.3 6.3 6.6 6.1 7.0 7.2 6.3 6.6 6.5 6.4 6.1 5.6 5.4 5.6 6.2 6.2 7.3 7.1 7.8 7.4 6.0 7.1 6.5 6.2 7.1 6.6 7.3
6.5 6.9 6.9 7.1 7.4 7.2 6.6 7.2 6.8 7.2 7.1 8.0 8.1 8.2 8.3 8.3 8.4 8.3 8.1 6.5 6.4 6.2 6.7 6.6 6.3 6.2 6.2 6.5 6.8 6.9 6.9 6.2 6.3 5.7 4.8 5.6 6.5 5.9 6.0 6.7 6.3 5.9 6.0 5.6 5.8 6.7 6.0 6.4 6.3
6.5 6.6 7.1 7.4 7.4 7.3 7.4 6.9 6.8 7.1 7.5 8.2 7.8 8.2 8.1 8.4 8.2 8.4 8.2 7.5 6.9 6.4 6.4 6.7 6.0 6.1 6.0 5.5 6.2 6.2 6.4 6.8 6.1 5.4 4.8 6.0 6.5 5.8 5.9 5.5 5.9 5.7 5.7 6.1 6.1 6.1 6.4 6.4 6.9
7.0 7.0 7.0 7.3 7.2 7.3 6.7 6.8 7.1 7.2 8.0 7.7 7.6 8.0 8.2 8.3 8.3 7.8 7.5 7.3 6.5 6.7 6.9 7.4 6.9 6.3 6.1 6.0 5.6 6.2 6.3 6.2 5.9 5.4 5.4 4.7 5.6 5.3 5.6 5.5 6.2 5.8 6.1 6.0 6.3 6.3 6.6 6.9 7.2
7.3 6.5 6.5 6.8 7.0 6.7 7.2 6.5 6.5 7.4 7.7 7.5 7.7 7.9 8.1 8.3 8.4 7.3 7.5 6.7 6.7 7.1 7.6 7.4 7.1 6.6 6.2 5.9 5.9 6.2 6.1 6.9 6.5 5.9 4.9 5.0 4.9 4.8 5.6 6.3 6.5 6.3 5.5 5.5 5.6 5.7 6.2 7.0 7.4
6.5 6.5 6.5 6.5 6.7 7.0 6.8 6.5 6.6 7.7 7.7 7.5 7.8 7.9 8.0 8.2 8.0 8.2 7.6 7.1 7.2 7.8 6.9 7.3 8.1 7.4 6.5 6.1 6.1 6.7 6.6 6.8 6.8 6.2 5.2 4.8 5.0 4.8 5.0 6.4 6.6 6.1 6.3 6.8 7.0 7.4 7.5 7.5 7.6
6.5 6.5 6.5 6.5 6.8 6.5 6.5 6.5 6.7 7.7 7.5 7.4 7.7 7.8 8.0 8.1 8.3 7.6 7.7 7.8 7.8 7.2 7.1 6.8 7.1 7.3 6.8 6.2 6.3 6.3 6.2 6.9 6.9 6.6 6.2 5.2 5.3 5.3 5.8 6.5 6.1 5.4 6.7 6.9 7.3 7.1 6.9 7.3 7.4
6.5 6.5 6.5 6.5 6.5 6.5 6.5 6.5 6.5 7.5 7.5 7.4 7.6 7.8 7.9 8.1 8.1 7.7 7.7 8.0 7.9 7.5 7.0 6.8 6.8 6.9 6.3 6.6 6.4 6.9 7.1 7.1 6.8 7.0 6.8 5.8 5.9 5.3 5.3 6.2 5.8 5.9 7.1 7.0 6.6 6.1 6.4 6.9 7.2
6.5 6.5 6.5 6.5 6.5 6.5 6.5 6.5 6.5 7.1 7.2 7.3 7.5 7.7 7.9 8.0 8.5 8.4 7.7 7.6 7.4 7.3 6.9 6.6 6.3 5.9 6.4 6.6 7.3 7.0 8.2 7.7 7.5 7.2 6.3 6.2 6.1 5.7 5.4 6.3 6.0 5.9 7.0 6.7 5.7 6.0 5.8 6.9 6.2
6.5 6.5 6.5 6.5 6.5 6.5 6.5 6.5 6.5 6.8 7.0 7.3 7.4 7.6 7.9 8.1 8.3 8.4 7.4 7.4 7.0 6.9 6.6 6.3 6.4 5.6 5.7 6.9 7.0 7.3 7.5 7.5 7.8 7.1 6.7 6.5 6.3 6.0 6.2 6.2 6.4 6.5 7.0 5.7 5.6 5.8 6.7 6.6 5.8
6.5 6.5 6.5 6.5 6.5 6.5 6.5 6.5 6.5 6.6 7.2 7.4 7.8 7.9 8.1 8.1 8.1 8.2 7.1 6.9 7.0 6.8 6.4 6.3 6.0 5.7 5.8 6.4 6.4 6.4 6.3 6.6 7.4 7.3 7.6 7.3 6.5 6.6 6.4 6.1 6.4 5.7 6.3 7.1 5.8 5.9 6.0 7.7 5.8
6.5 6.5 6.5 6.5 6.5 6.5 6.5 6.5 6.5 6.5 6.5 6.7 7.4 7.7 8.0 8.1 8.3 8.2 6.5 6.8 7.1 6.5 6.6 6.2 5.9 5.8 5.5 5.5 6.5 6.8 7.0 8.0 8.1 7.7 7.6 7.6 6.6 6.7 6.4 6.6 6.3 5.8 5.8 5.5 5.8 5.6 5.8 6.0 7.8
6.5 6.5 6.5 6.5 6.5 6.5 6.5 6.5 6.5 6.5 6.5 6.5 7.1 7.5 7.9 8.2 8.2 8.2 7.4 6.4 6.7 6.9 6.5 6.1 5.5 5.5 6.1 5.3 6.5 7.1 7.2 7.9 7.8 7.4 6.9 7.1 6.5 6.4 6.9 6.5 6.2 5.9 5.7 5.0 4.8 4.8 4.9 5.9 6.8
6.5 6.5 6.5 6.5 6.5 6.5 6.5 6.5 6.5 6.5 6.5 6.5 7.0 7.5 7.8 8.1 8.3 8.4 7.8 6.6 6.2 6.7 6.4 6.2 5.0 5.0 5.5 5.4 5.8 6.2 6.6 6.9 7.0 6.9 7.4 7.6 7.7 7.6 6.5 6.5 6.0 5.9 5.7 5.2 5.1 4.6 4.4 4.9 5.0
6.5 6.5 6.5 6.5 6.5 6.5 6.5 6.5 6.5 6.5 6.5 6.4 6.7 7.4 7.8 8.1 8.3 8.3 8.1 6.7 6.0 6.2 6.1 6.0 5.2 5.0 5.2 5.6 5.8 6.0 6.4 6.1 6.1 6.1 7.3 7.1 7.4 7.6 6.9 6.4 6.1 6.4 5.6 5.2 4.3 3.7 3.9 4.0 4.5
6.5 6.5 6.5 6.5 6.5 6.5 6.5 6.5 6.5 6.5 6.9 7.2 7.4 7.6 7.9 8.0 8.3 8.2 8.2 6.5 5.9 5.9 5.4 5.6 5.2 5.3 5.2 5.2 5.7 5.8 6.1 6.6 6.9 6.4 7.3 7.5 7.7 7.9 7.6 6.7 6.7 6.3 6.0 5.5 4.3 4.9 4.7 3.4 4.0
6.5 6.5 6.5 6.5 6.5 6.5 6.5 6.5 6.5 6.5 6.5 6.8 7.1 7.4 7.6 7.8 8.0 8.1 8.2 7.0 6.2 5.4 4.7 5.4 5.6 5.3 5.2 5.3 5.2 5.6 5.8 6.0 6.6 6.1 5.7 6.8 6.6 7.5 6.8 7.2 7.2 6.6 6.3 5.7 4.9 5.9 4.9 4.3 3.8
6.5 6.5 6.5 6.5 6.5 6.5 6.5 6.5 6.5 6.5 6.5 6.5 6.6 7.1 7.4 7.8 8.0 8.1 7.3 6.5 5.9 5.5 5.0 4.6 5.5 5.0 5.2 5.6 5.3 5.5 5.9 5.9 6.1 6.0 5.6 5.8 6.1 6.1 6.6 6.6 7.0 6.8 6.4 6.1 5.5 6.0 5.3 4.6 5.2
6.5 6.5 6.5 6.5 6.5 6.5 6.5 6.5 6.5 6.5 6.5 6.5 6.6 7.2 7.5 7.7 8.0 8.1 8.0 6.0 5.2 5.1 5.2 4.8 5.4 5.2 5.5 5.5 4.8 5.0 5.7 6.0 6.0 6.2 5.9 5.8 5.9 5.7 5.9 6.2 6.4 6.7 6.6 6.4 6.0 6.0 5.9 5.1 5.2
6.5 6.5 6.5 6.5 6.5 6.5 6.5 6.5 6.5 6.5 6.5 6.8 6.9 7.2 7.6 7.9 8.0 8.2 8.3 7.8 6.2 5.4 5.1 4.2 4.6 4.9 4.7 4.4 4.1 4.4 5.4 5.6 6.2 5.9 6.0 6.2 5.9 5.8 6.0 6.3 6.2 6.3 6.6 6.4 5.9 6.0 6.8 5.9 5.8
Wind_Speed
12 10 3 2 2 1 4 4 6 14 10 3 13 3 4 8 2 4 7 6 13 12 13 14 12 12 12 12 13 12 12 12 12 12 12 12 13 14 13 14 13 13 13 13 13 13 14 15 17
10 6 2 1 1 4 4 3 14 9 9 17 11 9 5 5 4 10 8 11 14 13 13 12 11 12 13 11 13 11 11 11 13 13 13 13 13 13 14 14 13 13 12 12 12 14 13 14 14
5 1 1 1 1 4 5 6 11 14 15 10 6 8 3 4 10 12 9 14 14 12 12 12 12 11 11 11 10 10 11 12 13 12 12 12 13 13 13 13 13 12 11 11 12 13 12 12 12
2 2 1 1 9 5 6 14 14 14 10 5 13 9 5 4 11 6 15 13 12 11 11 13 12 12 12 12 11 12 12 12 12 11 12 11 12 12 11 10 11 12 12 11 11 12 11 10 11
1 1 1 3 9 10 13 9 4 4 5 7 2 7 10 3 8 17 14 12 12 11 12 13 13 12 12 11 12 11 11 11 11 10 10 11 11 11 11 11 10 12 12 12 12 11 11 11 10
2 0 2 4 13 11 7 7 5 6 7 9 11 12 4 8 15 14 13 11 11 10 11 12 12 12 12 11 10 11 11 11 10 10 10 10 10 9 9 9 9 10 12 12 11 10 11 12 13
0 1 2 8 12 7 4 3 5 7 9 7 10 8 5 11 12 13 12 11 10 11 9 11 11 11 11 11 10 9 9 11 9 9 8 7 6 6 6 8 8 9 11 11 11 11 11 11 12
1 1 2 4 4 5 4 4 7 5 8 11 8 6 8 12 13 13 12 10 9 8 9 10 9 11 9 10 9 9 8 8 7 8 6 5 4 5 5 6 8 9 10 10 11 10 11 10 9
1 1 3 2 4 7 7 5 5 7 10 3 3 11 14 18 15 13 12 10 8 7 8 9 8 9 8 7 8 8 7 7 6 7 5 5 5 6 7 7 9 9 10 10 10 10 9 8 8
1 2 2 2 8 9 4 4 9 6 5 6 13 16 19 17 16 14 13 11 10 10 8 7 9 9 8 7 6 5 4 4 4 5 4 4 7 6 7 10 10 10 10 10 10 9 9 5 5
2 2 5 4 10 12 10 5 2 11 4 6 20 20 19 17 13 13 12 12 12 10 8 8 8 8 7 5 5 3 2 2 2 3 5 6 7 7 8 9 10 11 10 10 10 9 6 5 4
2 5 1 7 7 6 5 9 7 4 3 8 18 19 17 17 14 13 12 12 11 11 10 9 8 8 7 5 5 4 3 2 2 4 5 7 8 7 7 7 8 9 9 9 7 7 6 4 3
5 2 3 7 8 8 6 6 5 6 6 16 17 17 17 15 13 10 11 11 10 10 10 9 8 7 8 5 5 4 3 2 3 3 5 6 7 6 6 7 7 8 9 8 7 6 5 3 2
4 7 8 7 7 7 7 4 2 3 9 17 19 18 16 15 14 10 11 12 11 10 10 10 9 9 8 5 5 4 4 3 3 4 5 4 5 5 6 6 7 8 8 8 6 4 2 1 1
10 8 6 6 5 3 6 4 5 9 12 17 18 16 16 14 13 14 12 12 13 11 11 10 10 9 7 6 6 4 4 3 3 5 5 5 3 4 5 6 6 7 6 7 5 3 1 2 3
3 3 3 5 5 3 3 1 8 13 15 15 17 15 15 15 15 13 12 12 11 12 12 11 8 9 7 5 6 4 4 4 4 5 5 5 5 4 5 5 5 6 6 5 4 3 2 3 3
2 3 4 3 8 4 9 1 5 14 13 13 14 16 15 15 14 13 12 13 12 13 11 10 10 9 7 6 6 5 4 3 2 3 4 5 4 5 5 5 6 7 5 4 3 3 3 2 2
5 4 3 3 7 9 8 9 3 12 15 14 15 15 16 16 18 15 14 14 13 12 11 11 9 9 8 5 5 4 3 3 1 3 3 5 6 7 8 7 7 7 5 3 3 4 3 3 3
6 6 2 1 3 8 11 10 11 13 15 16 16 16 18 17 17 15 14 15 13 13 12 11 10 9 7 6 5 4 4 3 2 2 1 3 6 9 9 6 7 7 4 3 4 3 3 3 1
7 5 3 2 4 6 4 11 10 15 18 17 17 18 17 18 17 16 15 15 15 15 14 13 12 11 9 7 4 2 3 3 2 1 1 4 6 8 9 8 5 6 4 4 4 3 2 1 1
8 9 5 1 5 5 4 6 9 11 15 15 17 17 18 19 19 18 17 17 16 15 15 14 14 13 10 9 5 3 4 4 3 3 2 2 3 5 6 8 7 6 4 4 4 4 4 2 2
14 9 5 6 4 3 3 3 6 13 16 19 20 19 20 20 20 18 19 18 17 17 15 15 14 13 11 11 8 7 5 7 6 5 4 4 5 6 6 7 5 4 5 4 3 3 3 2 3
11 9 7 5 3 3 4 4 1 9 16 21 24 22 22 23 21 21 20 20 18 17 16 16 15 14 12 12 10 8 6 5 5 5 7 6 4 7 7 6 5 5 5 4 4 3 3 2 3
9 7 6 4 2 9 4 7 5 7 15 20 22 23 23 22 22 21 20 20 19 18 16 15 16 15 14 13 13 11 10 8 6 7 6 5 4 5 8 9 8 6 4 4 4 3 3 2 2
10 12 8 7 6 10 2 5 12 7 9 15 24 26 25 23 21 21 20 19 18 19 19 16 17 16 16 16 14 13 11 10 10 10 8 7 7 7 8 8 7 5 6 5 5 4 4 4 2
16 16 9 12 10 11 2 7 3 3 7 8 15 22 23 24 23 22 23 21 20 21 20 19 18 15 16 16 14 12 12 8 8 10 7 8 8 7 8 10 9 8 8 6 6 4 4 3 4
9 11 11 6 1 6 4 5 11 8 4 8 12 14 21 23 24 24 22 21 20 20 19 21 19 17 16 17 14 12 11 10 8 10 9 7 7 7 7 9 8 9 8 7 6 4 4 4 4
10 12 10 7 15 15 9 6 8 7 4 3 8 16 19 23 24 22 19 19 18 20 19 18 21 19 18 18 14 12 13 12 9 8 10 10 9 9 8 9 8 8 8 7 6 5 5 5 4
8 9 7 10 8 14 11 9 5 9 7 10 9 12 17 20 22 21 20 20 19 17 19 18 19 19 18 16 14 13 13 12 10 9 9 10 9 8 9 9 9 9 8 8 8 7 6 6 6
18 19 18 11 12 8 11 16 3 5 6 5 4 5 11 14 19 20 18 17 18 17 18 18 18 17 17 15 14 15 14 13 13 11 10 9 9 9 10 10 9 9 9 9 10 10 8 9 8
Wind_Direction
143 136 150 202 206 275 84 90 114 129 144 161 150 163 98 44 36 94 134 138 138 141 143 144 145 134 128 132 136 124 125 129 130 122 116 116 111 108 103 107 107 105 102 104 101 96 93 94 92
142 145 193 342 194 109 91 132 137 143 124 125 107 113 69 76 83 121 134 148 142 140 141 144 144 138 132 129 132 133 131 128 130 124 121 118 111 107 105 104 100 101 107 107 105 97 93 90 91
154 259 231 257 89 79 116 139 128 120 136 142 110 73 72 85 120 137 135 145 141 138 140 135 138 128 122 124 126 129 125 120 119 120 119 112 116 111 106 102 101 100 99 103 93 96 95 98 98
190 170 177 232 91 63 117 124 122 129 110 70 115 79 89 100 138 138 144 144 141 138 138 136 134 134 126 121 120 122 125 125 127 128 118 111 111 106 101 101 109 102 95 93 95 95 95 94 96
163 137 256 99 67 99 105 121 73 74 91 105 91 107 109 96 122 136 144 144 143 138 139 135 131 125 122 118 119 118 119 120 117 113 117 109 109 112 111 112 108 98 99 97 94 99 95 80 71
142 277 27 85 103 105 69 54 67 88 94 105 104 115 99 126 141 142 142 145 143 137 133 137 128 130 126 120 119 119 117 115 118 117 106 106 110 108 110 108 103 104 103 102 107 104 89 75 76
18 125 58 102 127 109 85 39 78 96 116 106 129 107 112 146 148 141 139 144 143 139 136 132 132 125 118 127 127 125 120 121 121 110 105 101 104 112 126 126 128 122 115 115 108 100 89 79 72
250 254 67 56 150 87 88 110 90 108 91 121 140 155 160 159 152 141 137 142 145 147 143 131 135 133 139 142 138 132 125 126 127 121 117 131 132 140 140 148 154 139 124 119 110 99 88 81 75
79 98 89 92 141 101 129 129 72 110 122 84 107 152 136 145 149 142 145 146 153 159 151 149 144 136 139 141 138 148 145 141 137 131 140 91 90 117 132 127 152 147 136 135 120 106 103 107 86
209 52 100 163 128 126 121 124 123 141 114 83 104 114 135 151 156 155 162 158 163 166 163 165 158 151 148 151 148 148 145 149 133 130 108 107 108 107 116 122 136 140 133 128 124 120 116 142 91
171 239 133 138 128 122 125 103 132 150 80 155 145 143 151 157 165 167 170 171 169 170 172 173 169 160 159 154 154 173 152 146 128 140 138 120 116 106 103 113 128 134 141 145 143 135 127 100 65
233 249 185 143 140 125 117 129 122 128 140 149 146 150 156 162 172 176 177 175 172 172 179 173 176 170 165 170 178 180 180 155 180 153 143 131 130 115 111 113 119 133 141 132 134 127 109 114 94
217 120 93 138 137 107 126 116 124 114 132 142 145 158 165 173 172 181 180 177 175 181 178 183 178 182 172 174 172 184 182 152 99 122 146 145 137 125 126 117 119 118 127 130 129 130 133 127 83
158 133 110 106 136 143 145 148 57 182 152 149 158 169 172 185 173 169 178 178 178 183 185 175 189 179 177 171 179 179 170 168 143 132 156 143 136 130 122 127 122 121 127 127 130 131 138 92 318
125 117 108 129 158 165 158 161 209 153 160 160 168 175 179 191 179 183 181 183 176 178 177 180 184 185 188 182 178 188 185 169 142 147 141 167 158 159 129 132 134 134 132 131 129 157 195 260 270
106 124 192 157 183 154 212 257 157 164 162 170 175 182 187 192 194 191 186 183 181 172 184 179 189 185 193 193 175 188 204 180 148 151 161 160 162 154 155 144 144 146 150 152 176 197 228 249 260
179 168 214 175 206 166 212 251 141 167 179 178 186 188 194 196 201 199 201 191 184 181 182 184 188 184 184 190 176 176 179 191 150 151 156 164 171 170 170 159 147 157 154 167 177 186 227 232 258
180 189 186 233 195 208 209 232 165 185 189 192 192 195 197 202 205 200 204 203 189 192 187 188 188 177 172 162 171 161 190 181 219 213 186 168 177 180 177 163 163 169 161 176 194 227 218 262 280
160 152 206 167 182 205 224 242 232 195 203 196 197 197 199 200 208 203 203 202 198 194 186 194 188 177 170 169 172 149 174 170 195 230 243 168 172 171 169 166 173 193 188 150 175 175 196 216 253
192 180 190 127 174 222 236 252 229 204 206 206 195 201 206 203 203 206 199 199 198 196 194 191 193 183 182 182 172 156 160 171 177 189 236 142 159 172 167 162 174 179 156 166 175 172 170 176 99
209 212 175 329 168 233 279 254 188 209 210 206 216 208 211 209 203 204 199 200 196 199 199 196 192 187 193 180 154 121 126 129 154 184 224 225 220 194 190 176 167 178 196 195 195 198 226 183 163
220 185 175 149 200 323 221 304 216 195 201 210 214 211 208 212 209 202 198 204 201 199 199 197 197 189 192 187 179 179 190 174 183 185 187 206 228 217 202 193 173 190 210 206 198 205 248 227 231
221 171 197 157 186 275 196 260 189 191 207 210 212 212 213 207 204 206 203 199 206 202 195 195 194 194 192 193 193 190 191 199 175 172 177 190 195 195 193 197 197 194 213 210 207 199 220 214 272
161 122 87 88 187 259 242 237 250 194 219 213 209 210 215 211 211 208 202 203 205 200 199 194 189 193 195 200 195 195 186 192 193 185 185 192 195 193 203 201 201 192 185 205 213 209 215 240 261
190 190 218 227 219 239 69 229 259 240 229 214 202 205 206 210 211 208 202 200 202 199 198 193 195 191 196 199 198 196 191 188 201 190 189 183 197 196 202 200 195 197 202 197 192 203 216 210 229
205 206 215 216 221 240 128 242 237 275 255 221 213 210 206 205 206 206 203 201 196 196 197 193 193 193 196 196 201 195 198 192 200 200 197 199 202 206 206 198 193 191 193 191 191 203 226 216 225
186 209 216 228 305 238 220 254 270 272 257 233 225 203 202 198 198 202 201 199 196 196 193 192 196 196 199 199 192 201 198 199 197 195 201 206 210 208 213 216 197 195 199 194 191 214 213 220 229
219 176 190 207 213 223 220 254 241 255 337 276 234 216 203 200 195 194 192 194 196 198 195 195 197 194 197 201 197 198 204 206 199 198 206 207 204 205 203 211 211 203 205 205 203 210 205 217 226
178 195 213 224 233 221 230 240 208 257 311 296 270 223 204 195 197 197 195 190 192 188 193 197 199 197 199 203 195 195 200 207 200 197 214 217 212 210 211 214 216 214 216 213 217 228 225 221 227
215 210 205 210 193 229 240 241 92 303 301 303 298 210 195 201 197 192 191 189 190 193 195 194 194 199 199 196 192 196 202 203 212 207 206 212 219 215 220 223 221 224 225 227 227 232 233 230 236